Volver al catálogo

ATLAS 2AS CENTAUR R/B

ActivoHEO
NORAD 26636·ROCKET BODY·🇺🇸 United States

Lanzado Dec 6, 2000 desde Cape Canaveral Space Force Station

Loading…

Próximos Pases (próximas 24 horas)

TLE

ActualizadoSource: Space-Track

Época: Sep 14, 2026, 11:34 UTC

1 26636U 00080B   26257.48229770  .00020375  00000-0  16964-2 0  9997
2 26636  26.1541 231.8088 5842263 129.8392 298.2205  4.32157057100348

Sigue ATLAS 2AS CENTAUR R/B en tiempo real con AllMySat

Download on the App Store